#timestamp,LO_Frequency,Hit,StdDev 
1653469215.2,286047001.6,N
1653469235.0,286047003.7,Y
1653469235.9,286047003.7,P
1653469255.8,286047001.5,N
1653469275.6,286047000.3,N
1653469295.5,286046999.9,N
1653469315.3,286047000.7,N
1653469335.1,286047000.7,N
1653469355.9,286046998.2,N
1653469375.7,286046998.2,N
1653469395.5,286046998.2,N
1653469415.4,286046998.7,N
1653469435.2,286046998.2,N
1653469455.1,286047001.0,N
1653469456.0,286047001.0,N
1653469475.8,286047000.2,N
1653469495.6,286046999.7,N
1653469515.5,286047000.2,N
1653469535.3,286047000.0,N
1653469555.1,286047000.8,N
1653469575.9,286047001.1,N
1653469595.7,286047001.0,N
1653469615.6,286047000.3,N
1653469635.4,286047000.8,N
1653469655.2,286047000.6,N
1653469675.1,286047000.0,N
1653469676.0,286047000.0,N
1653469695.8,286047001.0,N
1653469715.6,286047000.6,N
1653469735.5,286047000.6,N
1653469755.3,286047000.0,N
1653469775.2,286046998.6,N
1653469795.9,286046998.1,N
1653469815.7,286047000.7,N
1653469835.6,286046998.1,N
1653469855.4,286047000.8,N
1653469875.3,286046998.2,N
1653469895.1,286047001.1,N
1653469915.8,286047000.3,N
1653469935.7,286047000.4,N
1653469955.5,286047000.3,N
1653469975.3,286047000.4,N
1653469995.2,286047000.2,N
1653470015.0,286047000.7,N
1653470015.9,286047000.7,N
1653470035.8,286046999.7,N
1653470055.6,286046999.8,N
1653470075.4,286047002.6,Y
1653470095.3,286047002.5,P
1653470115.1,286047002.4,N
1653470135.9,286047000.1,N
1653470155.7,286047000.9,N
1653470175.5,286047000.5,N
1653470195.4,286047000.2,N
1653470215.2,286046999.7,N
1653470235.0,286047001.0,N
1653470235.9,286047001.0,N
1653470255.8,286047000.2,N
1653470275.6,286047000.1,N
1653470295.5,286047000.9,N
1653470315.3,286046999.7,N
1653470335.1,286047002.7,Y
1653470355.9,286046999.9,P
1653470375.7,286047000.2,N
1653470395.6,286047001.0,P
1653470415.4,286047000.5,N
1653470435.2,286046999.9,N
1653470455.1,286046999.9,N
1653470456.0,286046999.9,N
1653470475.8,286047000.4,N
1653470495.7,286047000.9,N
1653470515.5,286046998.2,Y
1653470535.3,286047001.1,P
1653470555.2,286047000.6,N
1653470575.0,286047000.8,N
1653470575.9,286047000.8,N
1653470595.7,286047001.2,Y
1653470615.6,286046998.1,P
1653470635.4,286046998.5,N
1653470655.3,286046998.4,N
1653470675.1,286047001.1,N
1653470676.0,286047001.1,N
1653470695.8,286047000.8,N
1653470715.7,286046998.6,N
1653470735.5,286046998.2,N
1653470755.3,286046998.2,N
1653470775.2,286047000.9,N
1653470825.1,286046998.5,E
1653470835.9,286046998.1,N
1653470855.7,286047001.0,P
1653470875.6,286046999.9,N
1653470895.4,286047002.2,N
1653470915.2,286046999.7,N
1653470935.1,286047001.7,N
1653470936.0,286047001.7,N
1653470955.8,286047001.8,N
1653470975.7,286047004.3,Y
1653470995.5,286047002.4,P
1653471015.3,286047002.5,P
1653471035.2,286046999.7,N
1653471055.0,286047000.0,N
1653471055.9,286047000.0,N
1653471075.8,286047002.3,N
1653471095.6,286047001.3,N
1653471115.4,286047001.5,N
1653471135.3,286047001.9,N
1653471155.1,286047001.3,N
1653471175.8,286047001.6,N
1653471195.7,286047001.4,N
1653471215.5,286047001.7,N
1653471235.4,286047004.2,Y
1653471255.2,286047002.3,P
1653471275.0,286047002.8,P
1653471275.9,286047002.8,P
1653471295.8,286047002.5,Y
1653471315.6,286046999.2,P
1653471335.5,286046996.8,N
1653471355.3,286046996.5,N
1653471375.1,286046996.6,N
1653471395.9,286046999.3,N
1653471415.7,286046997.7,N
1653471435.5,286046997.5,N
1653471455.4,286046997.0,N
1653471475.2,286046996.9,N
1653471495.1,286046999.4,N
1653471496.0,286046999.4,N
1653471515.8,286046999.0,N
1653471535.6,286046997.0,N
1653471555.5,286046999.3,N
1653471575.3,286046996.5,N
1653471595.1,286046999.0,N
1653471615.9,286046999.3,N
1653471635.7,286046999.4,N
1653471655.6,286046999.5,N
1653471675.4,286046999.4,N
1653471695.2,286046996.6,N
1653471715.1,286046996.9,N
1653471716.0,286046996.9,N
1653471735.8,286046996.8,N
1653471755.6,286046996.5,N
1653471775.5,286046999.2,N
1653471795.3,286046997.1,N
1653471815.2,286046996.7,N
1653471835.9,286046997.4,N
1653471855.7,286046996.7,N
1653471875.6,286046997.0,N
1653471895.4,286046997.2,N
1653471915.2,286046999.6,N
1653471935.1,286046999.6,N
1653471936.0,286046999.6,N
1653471955.8,286046999.2,N
1653471975.7,286046999.0,N
1653471995.5,286046999.4,N
1653472015.3,286046999.0,N
1653472035.2,286046999.1,N
1653472055.0,286046996.9,N
1653472055.9,286046996.9,N
1653472075.7,286046997.1,N
1653472095.6,286046997.5,N
1653472115.4,286046997.3,N
1653472135.3,286046996.6,N
1653472155.1,286046999.1,N
1653472156.0,286046999.1,N
1653472175.8,286046998.9,N
1653472195.7,286046997.1,N
1653472215.5,286046999.3,N
1653472235.3,286046996.6,N
1653472255.2,286046999.3,N
1653472275.0,286046999.6,N
1653472275.9,286046999.6,N
1653472295.8,286046999.6,N
1653472315.6,286046999.3,N
1653472335.4,286046999.0,N
1653472355.3,286046999.4,N
1653472375.1,286046999.2,N
1653472395.9,286046998.9,N
1653472415.7,286046998.3,N
1653472435.5,286047000.7,N
1653472455.4,286046998.4,N
1653472475.2,286046998.9,N
1653472495.0,286046998.4,N
1653472495.9,286046998.4,N
1653472515.8,286046999.3,N
1653472535.6,286046998.9,N
1653472555.5,286046998.7,N
1653472575.6,286046998.8,N
1653472595.4,286046999.4,N
1653472615.2,286046997.0,Y
1653472635.1,286046998.6,P
1653472636.0,286046998.6,P
1653472655.8,286047001.2,P
1653472675.7,286047000.8,N
1653472695.5,286046998.1,N
1653472715.3,286047001.2,N
1653472735.2,286046998.5,N
1653472755.0,286046998.8,N
1653472755.9,286046998.8,N
1653472775.8,286046998.1,N
1653472795.6,286046998.5,N
